Vorticity
4 5 8 11 15 23 2 8 5 5 7 4 5 21 -1 3 -5 10 8 10 8 12 15 10 14 18 10 10 12 10 11 9 6 8 5 7 10 8 8 9 5 4 5 6
10 8 3 7 2 7 7 11 9 5 6 10 1 -4 13 8 10 10 8 7 5 7 10 11 7 10 12 11 11 11 6 7 9 9 12 11 8 8 6 5 4 4 5 6
6 9 5 8 9 6 15 10 4 9 5 2 19 10 10 11 12 8 8 6 6 5 6 8 10 6 6 4 3 5 7 8 8 11 8 7 6 5 5 5 5 5 7 7
6 11 3 7 9 14 11 10 11 11 9 13 1 4 8 9 5 8 9 7 6 3 5 10 9 8 5 8 8 10 7 9 9 6 6 6 5 5 5 6 6 8 7 6
6 6 6 4 3 12 14 11 11 10 8 10 9 13 9 4 4 12 20 14 12 10 10 12 11 12 12 12 9 7 11 9 6 6 5 5 5 6 8 9 9 7 7 7
7 1 10 4 -2 12 13 11 2 8 7 7 0 7 14 17 14 11 19 13 12 13 13 16 14 13 8 7 13 9 7 6 5 4 5 6 8 7 5 5 6 7 7 8
-0 8 6 1 1 16 3 3 16 10 11 9 2 6 7 12 12 15 12 14 14 13 14 13 8 8 13 8 6 5 4 4 5 7 7 7 7 6 7 6 9 12 10 11
3 5 8 7 11 16 16 -7 3 4 5 1 4 6 9 12 12 12 15 15 14 13 12 11 14 8 5 4 3 3 3 5 6 6 8 8 7 5 7 11 10 7 10 11
9 -2 -14 3 6 8 20 17 4 4 5 7 8 10 11 12 13 14 17 18 18 17 12 6 4 3 3 2 2 1 4 4 6 6 8 7 6 6 10 8 7 10 6 6
4 6 1 4 -1 10 13 16 7 -3 -1 6 8 9 10 11 12 13 12 9 6 4 3 2 2 1 1 1 1 2 5 6 7 9 8 8 5 12 9 6 7 5 6 7
-1 7 3 3 15 0 6 8 13 13 12 6 8 9 10 10 10 7 5 3 2 2 2 2 1 1 1 2 4 7 9 7 9 8 6 9 13 9 3 5 2 -0 1 3
13 -4 9 2 1 11 5 12 15 14 10 7 7 8 9 8 6 4 2 1 1 1 2 2 2 2 4 5 8 8 6 10 11 8 11 10 5 10 4 1 1 0 2 3
-5 16 4 -0 5 1 4 7 10 9 8 10 8 8 7 6 5 3 2 0 1 1 1 1 1 3 5 8 8 10 6 13 6 -3 -1 3 8 11 9 1 3 2 3 6
10 18 4 7 -6 3 3 9 5 11 20 6 10 9 7 5 4 2 2 1 2 2 1 1 7 6 8 11 9 16 -4 3 7 8 2 -2 5 11 7 5 8 3 3 7
13 13 17 10 3 6 -7 -4 16 -1 25 16 6 7 11 6 3 3 4 5 2 7 18 9 7 11 16 7 6 -8 6 7 -6 -6 11 7 3 5 5 7 4 3 9 11
8 5 3 13 13 14 7 -2 11 11 6 11 14 9 5 3 3 9 0 4 14 6 3 9 26 -6 25 4 -13 14 6 15 -5 6 10 8 6 11 10 11 1 10 12 17
13 10 8 7 16 8 13 5 -1 7 6 13 4 2 8 9 17 14 23 12 1 25 -4 1 -1 12 -2 11 17 17 -15 -13 23 -6 10 10 12 14 7 1 11 15 16 18
16 14 7 10 13 19 11 8 1 7 16 3 7 3 8 2 12 17 12 6 9 3 18 22 0 6 -1 31 3 -17 -10 12 9 10 12 13 8 3 4 8 16 12 18 11
7 20 14 8 7 3 1 13 5 10 6 9 6 10 16 15 14 14 17 1 20 14 -5 9 -11 20 33 -0 -7 6 11 8 8 11 10 3 2 5 12 15 15 9 17 13
13 9 6 8 19 18 10 20 9 4 26 1 15 0 4 -5 23 19 6 13 0 6 1 10 28 10 -5 4 5 7 11 11 8 5 3 8 11 11 13 12 10 13 13 5
12 10 8 4 14 17 4 17 -14 14 25 19 6 26 10 14 15 1 -14 14 8 15 11 2 2 4 6 9 9 7 10 6 4 6 9 10 12 11 10 10 11 8 5 5
6 -1 3 -1 -8 8 -10 -3 21 5 15 11 10 -1 -13 11 21 10 4 9 9 5 3 6 7 7 8 7 8 7 4 6 8 8 12 12 11 11 9 7 4 6 11 15
19 26 14 6 13 32 16 3 12 15 17 17 15 11 5 6 12 13 8 6 6 6 7 6 6 6 7 6 4 6 6 8 13 12 11 10 7 6 6 8 11 13 15 19
14 14 15 11 9 9 6 5 7 5 1 1 18 11 7 5 7 9 9 8 7 8 11 9 7 4 4 6 8 13 14 12 11 8 5 6 7 10 12 13 16 18 18 19
7 3 -1 -1 0 11 16 17 19 22 5 -5 4 6 6 6 7 6 7 8 7 4 3 5 8 9 10 12 12 10 7 6 6 8 11 14 16 17 18 20 23 23 23 21
5 4 2 1 0 -2 -5 -3 1 3 4 4 4 3 4 5 6 6 6 7 7 9 9 11 11 11 9 7 7 8 11 16 19 22 23 23 21 19 21 23 24 25 26 25
6 6 7 6 6 6 7 7 7 8 9 9 9 9 9 9 9 8 8 9 13 13 10 8 7 8 11 17 21 24 24 23 18 11 6 7 15 22 25 24 24 25 23 24
Height
5688 5693 5697 5697 5697 5699 5703 5706 5706 5711 5714 5718 5718 5715 5714 5714 5712 5713 5713 5713 5711 5710 5709 5709 5710 5710 5710 5711 5711 5710 5709 5709 5707 5705 5702 5700 5698 5695 5692 5688 5683 5677 5671 5666
5679 5683 5687 5689 5692 5695 5697 5700 5702 5705 5706 5711 5710 5705 5705 5706 5706 5705 5706 5706 5705 5704 5703 5703 5702 5703 5703 5703 5702 5702 5701 5700 5699 5697 5694 5692 5689 5685 5681 5676 5671 5666 5660 5654
5670 5676 5678 5677 5680 5685 5688 5692 5694 5694 5699 5700 5702 5700 5699 5698 5699 5698 5697 5697 5697 5697 5697 5696 5695 5695 5694 5694 5694 5693 5692 5691 5689 5687 5684 5681 5677 5674 5669 5664 5659 5654 5647 5641
5665 5667 5663 5675 5676 5678 5681 5684 5686 5688 5691 5692 5693 5691 5690 5691 5689 5690 5690 5689 5688 5688 5688 5688 5687 5687 5687 5686 5686 5685 5683 5681 5679 5677 5674 5671 5667 5662 5657 5652 5647 5641 5635 5628
5654 5657 5665 5668 5670 5672 5674 5678 5679 5682 5684 5684 5683 5682 5684 5683 5682 5681 5680 5680 5680 5680 5680 5680 5679 5679 5678 5678 5677 5676 5674 5672 5670 5668 5664 5660 5655 5650 5645 5640 5634 5627 5621 5614
5648 5649 5654 5665 5666 5668 5669 5670 5672 5675 5676 5676 5674 5676 5676 5675 5673 5673 5671 5671 5671 5671 5671 5671 5671 5671 5670 5669 5669 5667 5666 5663 5660 5657 5653 5649 5644 5638 5632 5627 5620 5613 5606 5599
5640 5643 5651 5657 5660 5663 5663 5675 5665 5666 5668 5669 5668 5669 5668 5666 5665 5664 5664 5663 5662 5662 5662 5662 5663 5663 5662 5661 5660 5658 5656 5653 5650 5646 5641 5636 5630 5625 5618 5612 5605 5599 5591 5584
5636 5637 5642 5651 5653 5655 5662 5656 5656 5659 5660 5661 5661 5660 5659 5658 5657 5656 5655 5655 5655 5655 5655 5655 5655 5655 5654 5653 5651 5648 5645 5642 5637 5632 5627 5622 5616 5611 5604 5598 5591 5585 5577 5569
5628 5632 5641 5644 5647 5648 5649 5651 5651 5651 5652 5653 5654 5652 5651 5651 5650 5649 5648 5648 5647 5648 5648 5648 5648 5647 5645 5643 5640 5637 5633 5628 5623 5618 5613 5608 5602 5596 5590 5584 5576 5570 5562 5554
5619 5626 5631 5636 5639 5639 5641 5642 5643 5644 5643 5644 5645 5644 5643 5643 5643 5642 5642 5642 5642 5642 5641 5640 5639 5637 5635 5632 5628 5623 5619 5614 5609 5604 5598 5593 5587 5581 5575 5568 5561 5554 5545 5536
5612 5619 5621 5626 5632 5632 5630 5631 5632 5634 5635 5636 5636 5636 5636 5636 5635 5635 5635 5635 5634 5634 5632 5631 5628 5626 5623 5619 5615 5610 5605 5600 5595 5590 5584 5578 5572 5566 5559 5551 5543 5535 5527 5518
5607 5614 5612 5618 5620 5621 5622 5625 5626 5625 5627 5627 5627 5626 5627 5627 5627 5627 5627 5626 5625 5623 5622 5620 5617 5613 5609 5605 5601 5596 5591 5586 5580 5575 5569 5563 5557 5549 5541 5534 5525 5517 5507 5497
5596 5597 5603 5608 5612 5614 5615 5615 5616 5617 5616 5617 5618 5617 5617 5617 5617 5617 5616 5614 5613 5611 5608 5605 5603 5598 5594 5589 5586 5581 5576 5570 5564 5559 5553 5546 5538 5531 5525 5515 5504 5496 5487 5479
5585 5589 5594 5596 5600 5603 5605 5606 5607 5607 5607 5607 5608 5607 5606 5606 5606 5605 5603 5601 5600 5598 5594 5592 5588 5583 5578 5574 5569 5564 5559 5553 5547 5541 5534 5527 5519 5511 5503 5494 5486 5479 5473 5462
5578 5580 5583 5586 5588 5592 5595 5597 5597 5597 5596 5596 5597 5596 5595 5593 5592 5590 5589 5589 5586 5583 5580 5576 5572 5567 5563 5558 5553 5547 5542 5536 5530 5523 5515 5508 5501 5492 5483 5475 5466 5457 5448 5439
5571 5574 5576 5577 5579 5582 5584 5585 5586 5586 5585 5585 5584 5584 5583 5581 5579 5579 5577 5575 5572 5568 5564 5560 5556 5551 5546 5541 5535 5529 5523 5518 5512 5505 5497 5488 5481 5472 5464 5455 5446 5436 5426 5417
5562 5565 5566 5568 5569 5571 5572 5574 5575 5575 5574 5572 5572 5571 5569 5567 5566 5564 5562 5558 5555 5552 5548 5543 5540 5535 5528 5523 5518 5512 5506 5499 5492 5485 5477 5469 5461 5452 5444 5434 5425 5415 5404 5395
5553 5555 5556 5558 5559 5560 5562 5562 5562 5561 5561 5560 5558 5557 5555 5554 5552 5549 5547 5544 5540 5536 5533 5529 5524 5519 5514 5507 5501 5495 5488 5481 5473 5465 5458 5449 5441 5432 5423 5413 5404 5393 5383 5374
5543 5544 5546 5547 5548 5549 5549 5550 5550 5549 5548 5547 5545 5543 5540 5538 5537 5535 5531 5528 5525 5521 5517 5512 5507 5502 5496 5490 5484 5477 5469 5462 5455 5446 5438 5430 5421 5411 5401 5392 5381 5373 5364 5356
5533 5534 5535 5536 5536 5537 5538 5538 5537 5536 5534 5533 5531 5529 5526 5523 5522 5520 5516 5512 5508 5504 5499 5495 5490 5484 5479 5472 5465 5458 5451 5442 5434 5426 5418 5408 5399 5389 5379 5370 5361 5352 5344 5336
5524 5525 5525 5526 5525 5525 5526 5526 5524 5523 5522 5519 5517 5514 5510 5509 5505 5502 5499 5495 5492 5488 5483 5478 5472 5466 5459 5452 5445 5438 5430 5422 5413 5404 5395 5385 5375 5366 5357 5348 5340 5332 5324 5315
5515 5515 5515 5514 5513 5514 5513 5511 5510 5508 5507 5505 5501 5499 5496 5493 5490 5487 5484 5480 5475 5470 5465 5459 5453 5446 5439 5431 5424 5416 5408 5399 5389 5380 5371 5362 5353 5344 5335 5326 5318 5309 5301 5292
5505 5504 5502 5501 5500 5499 5498 5498 5497 5494 5492 5490 5488 5485 5482 5479 5475 5471 5467 5462 5457 5451 5445 5438 5431 5424 5417 5409 5401 5392 5383 5374 5365 5355 5346 5337 5329 5320 5312 5303 5294 5285 5277 5269
5496 5495 5494 5492 5491 5489 5488 5486 5484 5482 5480 5478 5474 5470 5467 5463 5459 5454 5449 5443 5437 5431 5424 5417 5410 5402 5393 5385 5376 5367 5358 5349 5340 5331 5322 5313 5304 5295 5286 5277 5269 5261 5254 5247
5485 5484 5483 5481 5479 5477 5475 5473 5471 5468 5465 5462 5458 5453 5449 5444 5439 5434 5428 5422 5415 5408 5403 5393 5386 5378 5369 5360 5351 5341 5332 5323 5314 5305 5296 5287 5278 5269 5260 5252 5244 5237 5231 5225
5474 5473 5471 5469 5467 5464 5462 5458 5455 5451 5447 5443 5439 5434 5429 5423 5417 5412 5406 5399 5392 5384 5377 5370 5362 5353 5343 5335 5326 5317 5307 5298 5288 5279 5270 5261 5252 5243 5235 5227 5221 5215 5209 5204
5461 5459 5457 5454 5451 5448 5445 5441 5437 5433 5429 5424 5419 5414 5409 5403 5397 5391 5384 5377 5369 5362 5354 5346 5337 5329 5320 5310 5299 5290 5281 5272 5263 5254 5245 5236 5227 5219 5211 5205 5199 5194 5190 5186